Location: Cran-Gévrier
(45.9039°N, 6.1012°E)
Time: 20:31:34
(UTC+00:00)

Cosmos 2315 Rocket - Pass Details

Date: 09 February 2023
Orbit: 965 x 1002 km, 82.9° (Epoch: 22 March)

Event Time Altitude Azimuth Distance (km) Brightness Sun altitude
Rises 18:03:43 0° 167° (SSE) 3,697 7.0 -12.8°
Reaches altitude 10° 18:06:19 10° 161° (SSE) 2,757 6.3 -13.3°
Maximum altitude 18:12:19 47° 90° (E) 1,303 4.2 -14.3°
Drops below altitude 10° 18:18:23 10° 19° (NNE) 2,785 6.2 -15.3°
Sets 18:21:01 0° 14° (NNE) 3,739 6.9 -15.8°
